Date String (YYYY-MM-DD hh:mm:ss) UTC,Instrument flags,Ambient pressure (hPa),Sample flow (lpm),Bypass flow (lpm),Sample temperature (°C),Ambient temperature (°C),ASC tube jacket temperature (°C),LED temperature (°C),Box temperature (°C),Sample RH (%),Span deviation,Mass concentration (μg/m³),Mass concentration (μg/m³),Mass concentration (μg/m³)
DateTimeUTC,F1_M11,P_M11,Q1_M11,Q2_M11,T1_M11,T2_M11,T3_M11,T4_M11,T5_M11,U1_M11,ZSPAN_M11,X0_M11,X2_M11,X1_M11
2022-10-04 19:00:00,,0830.5,4.99,0.00,24.5,21.3,00.0,32.8,25.2,34.2,-001.1,0011.44,0008.04,0007.65
2022-10-04 19:01:00,,0830.5,4.99,0.00,24.5,21.3,00.0,32.8,25.2,34.4,-001.6,0011.41,0008.06,0007.68
2022-10-04 19:02:00,,0830.5,5.01,0.00,24.5,21.3,00.0,32.8,25.2,34.7,-001.6,0011.62,0008.02,0007.65
2022-10-04 19:03:00,,0830.5,5.00,0.00,24.5,21.3,00.0,32.8,25.2,33.5,-001.5,0011.58,0007.98,0007.64
2022-10-04 19:04:00,,0830.5,4.99,0.00,24.5,21.2,00.0,32.8,25.2,33.9,-001.7,0011.56,0007.99,0007.66
2022-10-04 19:05:00,,0830.5,5.01,0.00,24.5,21.3,00.0,32.8,25.2,34.0,-001.8,0011.66,0008.07,0007.72
2022-10-04 19:06:00,,0830.5,5.01,0.00,24.4,21.2,00.0,32.9,25.1,34.0,-001.8,0011.70,0008.15,0007.78
2022-10-04 19:07:00,,0830.5,4.99,0.00,24.4,21.3,00.0,32.9,25.2,34.2,-001.9,0011.66,0008.16,0007.80
2022-10-04 19:08:00,,0830.4,5.01,0.00,24.4,21.3,00.0,32.9,25.2,35.1,-002.3,0011.70,0008.18,0007.79
2022-10-04 19:09:00,,0830.4,4.98,0.00,24.5,21.5,00.0,32.9,25.3,34.0,-002.5,0011.30,0008.14,0007.75
2022-10-04 19:10:00,,0830.4,5.01,0.00,24.6,21.5,00.0,32.9,25.4,33.5,-002.3,0011.05,0008.09,0007.70
2022-10-04 19:11:00,,0830.4,5.00,0.00,24.6,21.6,00.0,32.9,25.3,33.3,-002.2,0011.14,0008.09,0007.68
2022-10-04 19:12:00,,0830.4,5.00,0.00,24.6,21.8,00.0,32.9,25.4,33.5,-002.0,0010.98,0008.04,0007.65
2022-10-04 19:13:00,,0830.4,5.00,0.00,24.7,22.0,00.0,32.9,25.5,32.9,-002.3,0010.67,0008.03,0007.65
2022-10-04 19:14:00,,0830.4,5.00,0.00,24.7,22.1,00.0,32.9,25.5,32.7,-002.3,0010.68,0008.08,0007.68
2022-10-04 19:15:00,,0830.4,5.00,0.00,24.6,22.1,00.0,32.9,25.5,32.9,-002.0,0010.70,0008.10,0007.69
2022-10-04 19:16:00,,0830.5,4.99,0.00,24.6,22.0,00.0,33.0,25.5,33.4,-001.8,0010.80,0008.12,0007.70
2022-10-04 19:17:00,,0830.4,4.99,0.00,24.6,22.0,00.0,33.0,25.5,33.2,-002.1,0011.08,0008.14,0007.72
2022-10-04 19:18:00,,0830.3,5.00,0.00,24.5,22.0,00.0,33.0,25.5,33.6,-002.2,0011.13,0008.16,0007.73
2022-10-04 19:19:00,,0830.3,5.00,0.00,24.5,22.0,00.0,33.0,25.5,34.0,-002.1,0011.12,0008.18,0007.77
2022-10-04 19:20:00,,0830.3,4.99,0.00,24.5,21.9,00.0,33.0,25.4,33.9,-002.2,0011.25,0008.28,0007.88
2022-10-04 19:21:00,,0830.3,5.01,0.00,24.4,21.7,00.0,33.0,25.4,33.6,-002.5,0011.43,0008.41,0008.02
2022-10-04 19:22:00,,0830.3,4.99,0.00,24.3,21.7,00.0,33.0,25.3,33.5,-002.5,0011.55,0008.54,0008.14
2022-10-04 19:23:00,,0830.2,5.01,0.00,24.3,21.7,00.0,32.9,25.3,33.4,-002.5,0011.62,0008.61,0008.21
2022-10-04 19:24:00,,0830.3,4.99,0.00,24.3,21.7,00.0,32.9,25.4,33.9,-002.4,0011.64,0008.61,0008.24
2022-10-04 19:25:00,,0830.3,4.99,0.00,24.3,21.8,00.0,32.9,25.4,34.3,-002.4,0011.48,0008.49,0008.14
2022-10-04 19:26:00,,0830.3,5.01,0.00,24.3,21.9,00.0,32.9,25.4,34.3,-002.6,0011.40,0008.39,0008.05
2022-10-04 19:27:00,,0830.3,4.99,0.00,24.3,22.0,00.0,32.9,25.5,32.6,-002.6,0011.26,0008.34,0008.00
2022-10-04 19:28:00,,0830.3,5.00,0.00,24.4,22.1,00.0,32.9,25.5,32.8,-002.2,0011.24,0008.26,0007.91
2022-10-04 19:29:00,,0830.3,5.00,0.00,24.4,22.0,00.0,32.9,25.5,32.6,-002.2,0011.31,0008.20,0007.86
2022-10-04 19:30:00,,0830.2,5.01,0.00,24.3,21.8,00.0,32.9,25.4,32.9,-001.9,0011.78,0008.16,0007.79
2022-10-04 19:31:00,,0830.3,5.00,0.00,24.3,21.8,00.0,32.9,25.4,32.2,-001.7,0011.97,0008.06,0007.66
2022-10-04 19:32:00,,0830.2,5.00,0.00,24.3,22.0,00.0,32.9,25.5,31.8,-001.6,0011.82,0007.86,0007.46
2022-10-04 19:33:00,,0830.2,5.00,0.00,24.3,22.0,00.0,32.9,25.5,32.2,-001.7,0011.56,0007.66,0007.28
2022-10-04 19:34:00,,0830.2,5.00,0.00,24.3,22.2,00.0,32.9,25.5,33.1,-001.5,0011.35,0007.48,0007.11
2022-10-04 19:35:00,,0830.1,5.00,0.00,24.3,22.3,00.0,32.9,25.6,33.5,-001.1,0011.26,0007.46,0007.09
2022-10-04 19:36:00,,0830.1,5.00,0.00,24.3,22.3,00.0,32.9,25.5,33.6,-001.5,0011.32,0007.47,0007.08
2022-10-04 19:37:00,,0830.2,5.00,0.00,24.2,22.3,00.0,32.9,25.5,33.9,-001.6,0011.27,0007.40,0007.01
2022-10-04 19:38:00,,0830.2,5.01,0.00,24.2,22.3,00.0,32.9,25.5,32.5,-001.8,0011.18,0007.31,0006.92
2022-10-04 19:39:00,,0830.1,4.99,0.00,24.2,22.1,00.0,32.9,25.5,31.8,-002.4,0010.80,0007.16,0006.80
2022-10-04 19:40:00,,0830.2,5.00,0.00,24.2,22.0,00.0,32.8,25.5,32.1,-002.3,0010.53,0007.03,0006.67
2022-10-04 19:41:00,,0830.2,5.00,0.00,24.2,22.0,00.0,32.8,25.5,31.8,-002.6,0010.30,0006.86,0006.52
2022-10-04 19:42:00,,0830.1,5.00,0.00,24.1,21.8,00.0,32.8,25.4,31.4,-002.3,0009.86,0006.74,0006.45
2022-10-04 19:43:00,,0830.1,4.99,0.00,24.1,21.6,00.0,32.8,25.3,31.4,-002.5,0010.00,0006.70,0006.41
2022-10-04 19:44:00,,0830.2,5.01,0.00,24.0,21.6,00.0,32.8,25.3,32.3,-002.6,0010.05,0006.64,0006.35
2022-10-04 19:45:00,,0830.2,4.99,0.00,24.0,21.6,00.0,32.8,25.3,32.2,-002.5,0010.67,0006.61,0006.31
2022-10-04 19:46:00,,0830.1,5.00,0.00,23.9,21.5,00.0,32.8,25.3,31.9,-002.8,0011.15,0006.52,0006.22
2022-10-04 19:47:00,,0830.1,4.99,0.00,23.9,21.3,00.0,32.7,25.2,31.5,-002.7,0011.37,0006.36,0006.07
2022-10-04 19:48:00,,0830.1,5.00,0.00,23.8,21.2,00.0,32.7,25.1,31.7,-002.3,0011.51,0006.28,0005.99
2022-10-04 19:49:00,,0830.1,5.00,0.00,23.8,21.1,00.0,32.7,25.1,32.7,-002.3,0011.65,0006.33,0006.05
2022-10-04 19:50:00,,0830.1,5.01,0.00,23.7,21.0,00.0,32.6,25.0,32.6,-001.6,0011.82,0006.33,0006.06
2022-10-04 19:51:00,,0830.1,5.00,0.00,23.6,20.8,00.0,32.6,25.0,33.0,-001.6,0011.78,0006.33,0006.06
2022-10-04 19:52:00,,0830.2,5.01,0.00,23.6,20.7,00.0,32.6,24.9,33.0,-001.2,0011.55,0006.34,0006.07
2022-10-04 19:53:00,,0830.2,5.00,0.00,23.5,20.6,00.0,32.5,24.8,33.3,-001.1,0011.45,0006.33,0006.05
2022-10-04 19:54:00,,0830.2,4.99,0.00,23.4,20.5,00.0,32.5,24.8,33.6,-000.8,0011.13,0006.30,0006.02
2022-10-04 19:55:00,,0830.2,5.01,0.00,23.4,20.5,00.0,32.4,24.7,34.4,-000.9,0011.19,0006.32,0006.01
2022-10-04 19:56:00,,0830.1,4.99,0.00,23.3,20.4,00.0,32.3,24.6,34.8,-001.1,0010.92,0006.36,0006.05
2022-10-04 19:57:00,,0830.1,5.02,0.00,23.3,20.7,00.0,32.3,24.7,34.9,-001.5,0010.68,0006.45,0006.14
2022-10-04 19:58:00,,0830.1,4.99,0.00,23.3,20.8,00.0,32.3,24.8,34.4,-001.4,0010.29,0006.47,0006.17
2022-10-04 19:59:00,,0830.0,4.99,0.00,23.4,20.8,00.0,32.2,24.8,34.1,-001.5,0010.12,0006.49,0006.20
